"startDT [UTC]","vpos","CH4 [ppm]","stdev(CH4) [ppm]","CO2 [ppm]","stdev(CO2) [ppm]","H2O_reported [%]","stdev(H2O_reported)","CavityPressure [torr]","CavityTemp [C]","OutletValve","CH4_dry [ppm]","CO2_dry [ppm]","DasTemp [C]","EtalonTemp [C]","WarmBoxTemp [C]","MPVPosition","T_ECpre [C]","T_EC1 [C]","T_EC2 [C]","p_inlet [hPa]","p_in [hPa]","p_out [hPa]","T_inlet [C]","RH_inlet [%]","dwpt_inlet [C]","T_vent [C]","RH_vent [%]","dwpt_vent [C]","flow_vent [l min-1]","flow_inlet [l min-1]","dwpt_sample [C]","T_room [C]"
2013-12-09 00:00:00,0.0,1.93831,0.00075,403.320,0.000,0.1226,0.0017,139.991,45.000,31748.75674,1.94011,403.912,31.750,45.060,45.000,0.00,0.11,-272.58,-272.64,-23,576,-3,22.1,3.6,-22.9,21.9,3.8,-22.6,5.73,2.67,-10.9,26.6
2013-12-09 00:01:00,0.0,1.93936,0.00011,403.415,0.045,0.1193,0.0015,139.999,45.000,31752.08435,1.94166,403.988,31.750,45.060,45.000,0.00,0.11,-272.58,-272.64,-23,576,-3,22.0,3.6,-23.0,21.8,3.8,-22.7,5.73,2.56,-10.9,26.5
2013-12-09 00:02:00,0.0,1.93867,0.00050,403.437,0.000,0.1194,0.0027,139.999,45.000,31752.04181,1.94116,404.014,31.750,45.060,45.000,0.00,0.11,-272.57,-272.64,-23,576,-3,22.0,3.6,-23.0,21.9,3.8,-22.7,5.73,2.52,-10.9,26.5
2013-12-09 00:03:00,0.0,1.93885,0.00030,403.436,0.000,0.1219,0.0015,139.995,45.000,31749.92705,1.94108,404.027,31.750,45.060,45.000,0.00,0.11,-272.58,-272.64,-23,576,-3,22.0,3.6,-23.0,21.9,3.8,-22.7,5.73,2.68,-11.0,26.5
2013-12-09 00:04:00,0.0,1.93922,0.00019,403.437,0.000,0.1188,0.0012,140.009,45.000,31752.26290,1.94144,404.019,31.750,45.060,45.000,0.00,0.11,-272.58,-272.64,-23,576,-3,22.0,3.6,-23.0,21.8,3.8,-22.7,5.73,2.52,-10.9,26.5
2013-12-09 00:05:00,0.0,1.93867,0.00033,403.437,0.000,0.1207,0.0016,140.001,45.000,31751.59990,1.94118,404.019,31.750,45.060,45.000,0.00,0.11,-272.58,-272.64,-23,576,-3,22.0,3.6,-23.0,21.9,3.8,-22.7,5.73,2.57,-10.9,26.6
2013-12-09 00:06:00,0.0,1.93854,0.00049,403.436,0.000,0.1218,0.0019,139.997,45.000,31750.19693,1.94075,404.028,31.752,45.060,45.000,0.00,0.11,-272.57,-272.63,-23,576,-3,22.0,3.6,-22.9,21.8,3.8,-22.7,5.73,2.66,-10.9,26.5
2013-12-09 00:07:00,0.0,1.93908,0.00029,403.309,0.097,0.1217,0.0016,140.004,45.000,31751.04402,1.94135,403.918,31.750,45.060,45.000,0.00,0.11,-272.58,-272.64,-23,576,-3,22.0,3.6,-23.0,21.9,3.8,-22.7,5.73,2.49,-10.9,26.6
2013-12-09 00:08:00,0.0,1.93974,0.00053,403.235,0.000,0.1213,0.0022,140.006,45.000,31753.30710,1.94183,403.827,31.750,45.060,45.000,0.00,0.11,-272.57,-272.64,-23,576,-3,22.0,3.6,-23.0,21.9,3.8,-22.7,5.73,2.63,-10.9,26.6
2013-12-09 00:09:00,0.0,1.93992,0.00037,403.235,0.000,0.1231,0.0028,140.000,45.000,31752.12610,1.94234,403.833,31.750,45.060,45.000,0.00,0.11,-272.58,-272.63,-23,576,-3,22.0,3.6,-23.0,21.9,3.8,-22.7,5.73,2.60,-10.9,26.6
2013-12-09 00:10:00,0.0,1.94011,0.00025,403.166,0.069,0.1207,0.0017,139.996,45.000,31750.16705,1.94237,403.768,31.750,45.060,45.000,0.00,0.11,-272.58,-272.64,-23,576,-3,22.1,3.6,-23.0,21.9,3.8,-22.7,5.73,2.50,-11.0,26.6
2013-12-09 00:11:00,0.0,1.94012,0.00033,403.097,0.000,0.1193,0.0011,140.004,45.000,31753.53794,1.94249,403.675,31.750,45.060,45.000,0.00,0.11,-272.58,-272.64,-23,576,-3,22.1,3.6,-22.9,21.8,3.8,-22.6,5.73,2.68,-10.9,26.6
2013-12-09 00:12:00,0.0,1.94056,0.00036,403.097,0.000,0.1204,0.0010,140.001,45.000,31750.11287,1.94273,403.682,31.750,45.060,45.000,0.00,0.11,-272.57,-272.64,-23,576,-3,22.1,3.6,-23.0,21.8,3.8,-22.6,5.73,2.53,-10.9,26.6
2013-12-09 00:13:00,0.0,1.94026,0.00015,403.097,0.000,0.1203,0.0015,139.995,45.000,31748.66178,1.94251,403.681,31.750,45.060,45.000,0.00,0.11,-272.58,-272.64,-23,576,-3,22.0,3.6,-23.0,21.8,3.8,-22.6,5.73,2.54,-10.9,26.6
2013-12-09 00:14:00,0.0,1.93985,0.00040,403.097,0.000,0.1211,0.0035,139.997,45.000,31750.87962,1.94221,403.688,31.750,45.060,45.000,0.00,0.11,-272.58,-272.64,-23,576,-3,22.0,3.7,-22.9,21.9,3.8,-22.6,5.73,2.68,-10.9,26.6
2013-12-09 00:15:00,0.0,1.93959,0.00023,403.097,0.000,0.1216,0.0011,140.011,45.000,31755.27573,1.94212,403.684,31.750,45.060,45.000,0.00,0.11,-272.57,-272.64,-23,576,-3,22.0,3.7,-22.9,21.9,3.8,-22.6,5.73,2.49,-10.9,26.6
2013-12-09 00:16:00,0.0,1.93937,0.00013,403.097,0.000,0.1215,0.0017,139.998,45.000,31751.24356,1.94165,403.687,31.750,45.060,45.000,0.00,0.11,-272.57,-272.64,-23,576,-3,22.0,3.7,-22.9,21.9,3.8,-22.6,5.73,2.61,-11.0,26.5
2013-12-09 00:17:00,0.0,1.93923,0.00019,403.097,0.000,0.1216,0.0012,140.001,45.000,31751.89044,1.94160,403.688,31.750,45.060,45.000,0.00,0.11,-272.58,-272.64,-23,577,-3,22.0,3.7,-22.9,21.9,3.8,-22.6,5.73,2.64,-11.0,26.5
2013-12-09 00:18:00,0.0,1.93901,0.00031,403.097,0.000,0.1215,0.0019,139.998,45.000,31750.88661,1.94146,403.686,31.750,45.060,45.000,0.00,0.11,-272.58,-272.64,-23,576,-3,22.0,3.7,-22.9,21.8,3.8,-22.6,5.73,2.49,-10.9,26.5
2013-12-09 00:19:00,0.0,1.93939,0.00041,403.097,0.000,0.1222,0.0012,139.997,45.000,31751.95690,1.94164,403.693,31.750,45.060,45.000,0.00,0.11,-272.58,-272.64,-23,576,-3,22.0,3.7,-22.9,21.8,3.8,-22.5,5.73,2.63,-10.9,26.5
2013-12-09 00:20:00,0.0,1.93926,0.00040,403.097,0.000,0.1212,0.0010,140.008,45.000,31752.49802,1.94146,403.686,31.753,45.060,45.000,0.00,0.11,-272.57,-272.64,-23,576,-3,22.0,3.7,-22.9,21.8,3.8,-22.5,5.73,2.62,-10.9,26.5
2013-12-09 00:21:00,0.0,1.93958,0.00041,402.861,0.000,0.1224,0.0014,140.011,45.000,31753.23072,1.94197,403.481,31.750,45.060,45.000,0.00,0.11,-272.57,-272.64,-23,576,-3,22.0,3.7,-22.9,21.8,3.8,-22.5,5.73,2.49,-10.9,26.5
2013-12-09 00:22:00,0.0,1.93916,0.00043,402.861,0.000,0.1233,0.0037,139.998,45.000,31748.72815,1.94163,403.461,31.766,45.060,45.000,0.00,0.11,-272.57,-272.64,-23,576,-3,22.0,3.7,-22.9,21.8,3.8,-22.5,5.73,2.66,-10.9,26.6
2013-12-09 00:23:00,0.0,1.93921,0.00022,402.861,0.000,0.1229,0.0013,140.000,45.000,31750.20326,1.94141,403.455,31.750,45.060,45.000,0.00,0.11,-272.58,-272.64,-23,576,-3,22.0,3.7,-22.9,21.8,3.8,-22.5,5.73,2.58,-10.9,26.6
2013-12-09 00:24:00,0.0,1.93932,0.00033,402.861,0.000,0.1214,0.0003,139.999,45.000,31748.61907,1.94165,403.453,31.762,45.060,45.000,0.00,0.11,-272.58,-272.64,-23,576,-3,22.0,3.7,-22.9,21.8,3.8,-22.5,5.73,2.50,-10.9,26.5
2013-12-09 00:25:00,0.0,1.93918,0.00014,402.861,0.000,0.1222,0.0013,139.998,45.000,31750.69348,1.94157,403.455,31.750,45.060,45.000,0.00,0.11,-272.58,-272.64,-23,576,-3,22.0,3.7,-22.9,21.8,3.8,-22.5,5.73,2.68,-10.9,26.5
2013-12-09 00:26:00,0.0,1.93894,0.00020,402.861,0.000,0.1215,0.0019,140.019,45.000,31756.31886,1.94132,403.451,31.750,45.060,45.000,0.00,0.11,-272.57,-272.64,-23,576,-3,22.0,3.7,-22.9,21.9,3.8,-22.5,5.73,2.53,-10.9,26.6
2013-12-09 00:27:00,0.0,1.93865,0.00027,402.861,0.000,0.1214,0.0015,139.999,45.000,31752.96790,1.94097,403.450,31.755,45.060,45.000,0.00,0.11,-272.58,-272.64,-23,576,-3,22.0,3.7,-22.9,21.9,3.8,-22.5,5.73,2.56,-10.9,26.6
2013-12-09 00:28:00,0.0,1.93901,0.00030,402.861,0.000,0.1211,0.0010,139.999,45.000,31753.04218,1.94134,403.450,31.750,45.060,45.000,0.00,0.11,-272.58,-272.64,-23,576,-3,22.0,3.7,-22.9,21.9,3.8,-22.5,5.73,2.67,-10.9,26.6
2013-12-09 00:29:00,0.0,1.93907,0.00021,402.861,0.000,0.1230,0.0017,139.999,45.000,31751.81148,1.94145,403.455,31.750,45.060,45.000,0.00,0.11,-272.57,-272.64,-23,576,-3,22.1,3.7,-22.9,21.9,3.8,-22.5,5.73,2.49,-10.9,26.6
2013-12-09 00:30:00,0.0,1.93918,0.00049,402.861,0.000,0.1221,0.0020,139.995,45.000,31752.06249,1.94134,403.455,31.750,45.060,45.000,0.00,0.11,-272.57,-272.64,-23,576,-3,22.0,3.7,-22.9,21.9,3.8,-22.5,5.73,2.61,-10.9,26.6
2013-12-09 00:31:00,0.0,1.93891,0.00026,402.861,0.000,0.1222,0.0014,139.995,45.000,31751.64733,1.94148,403.455,31.750,45.060,45.000,0.00,0.11,-272.58,-272.64,-23,576,-3,22.0,3.7,-22.9,21.9,3.8,-22.5,5.73,2.63,-10.9,26.6
2013-12-09 00:32:00,0.0,1.93912,0.00035,402.861,0.000,0.1246,0.0030,139.998,45.000,31752.84340,1.94132,403.464,31.750,45.060,45.000,0.00,0.11,-272.57,-272.64,-23,576,-3,22.1,3.7,-22.9,21.9,3.8,-22.5,5.73,2.49,-10.9,26.6
2013-12-09 00:33:00,0.0,1.93899,0.00031,402.860,0.002,0.1232,0.0012,140.002,45.000,31755.62933,1.94144,403.460,31.750,45.060,45.000,0.00,0.11,-272.57,-272.64,-22,576,-3,22.1,3.7,-22.9,21.9,3.8,-22.5,5.73,2.66,-10.9,26.6
2013-12-09 00:34:00,0.0,1.93880,0.00044,402.856,0.000,0.1225,0.0010,140.003,45.000,31756.00569,1.94129,403.450,31.750,45.060,45.000,0.00,0.11,-272.58,-272.64,-23,576,-3,22.1,3.7,-22.9,21.9,3.8,-22.6,5.73,2.58,-10.9,26.6
2013-12-09 00:35:00,0.0,1.93878,0.00033,402.856,0.000,0.1226,0.0012,139.997,45.000,31754.10537,1.94100,403.451,31.750,45.060,45.000,0.00,0.11,-272.57,-272.64,-23,576,-3,22.1,3.7,-22.9,21.9,3.8,-22.6,5.73,2.51,-10.9,26.6
2013-12-09 00:36:00,0.0,1.93837,0.00029,402.856,0.000,0.1214,0.0011,140.000,45.000,31755.39630,1.94077,403.446,31.750,45.060,45.000,0.00,0.11,-272.57,-272.64,-23,576,-3,22.1,3.7,-22.9,21.9,3.8,-22.6,5.73,2.68,-10.9,26.6
2013-12-09 00:37:00,0.0,1.93833,0.00029,402.856,0.000,0.1235,0.0017,140.005,45.000,31756.29229,1.94069,403.454,31.750,45.060,45.000,0.00,0.11,-272.58,-272.64,-23,576,-3,22.1,3.7,-22.8,21.9,3.8,-22.6,5.73,2.51,-10.9,26.6
2013-12-09 00:38:00,0.0,1.93876,0.00028,402.856,0.000,0.1208,0.0012,140.008,45.000,31755.64253,1.94094,403.445,31.750,45.060,45.000,0.00,0.11,-272.58,-272.64,-23,576,-3,22.1,3.7,-22.8,21.9,3.8,-22.6,5.73,2.59,-10.9,26.6
2013-12-09 00:39:00,0.0,1.93834,0.00018,402.856,0.000,0.1204,0.0018,140.009,45.000,31756.08309,1.94079,403.441,31.750,45.060,45.000,0.00,0.11,-272.58,-272.64,-23,576,-3,22.1,3.7,-22.8,21.9,3.8,-22.6,5.73,2.65,-10.9,26.6
2013-12-09 00:40:00,0.0,1.93863,0.00040,402.856,0.000,0.1216,0.0023,140.004,45.000,31753.00395,1.94089,403.444,31.744,45.060,45.000,0.00,0.11,-272.57,-272.64,-23,576,-3,22.1,3.7,-22.8,21.9,3.8,-22.6,5.73,2.48,-10.9,26.6
2013-12-09 00:41:00,0.0,1.93849,0.00032,402.856,0.000,0.1216,0.0010,139.998,45.000,31752.67784,1.94080,403.446,31.750,45.060,45.000,0.00,0.11,-272.58,-272.64,-23,576,-3,22.1,3.7,-22.9,21.8,3.8,-22.6,5.73,2.64,-10.9,26.5
2013-12-09 00:42:00,0.0,1.93841,0.00033,402.856,0.000,0.1210,0.0015,139.997,45.000,31750.52665,1.94072,403.445,31.750,45.060,45.000,0.00,0.11,-272.57,-272.64,-23,576,-3,22.1,3.7,-22.9,21.9,3.8,-22.6,5.73,2.60,-10.9,26.6
2013-12-09 00:43:00,0.0,1.93841,0.00026,402.856,0.000,0.1229,0.0021,139.997,45.000,31750.29147,1.94081,403.448,31.745,45.060,45.000,0.00,0.11,-272.58,-272.64,-23,576,-3,22.1,3.7,-22.9,21.9,3.8,-22.6,5.73,2.49,-10.9,26.6
2013-12-09 00:44:00,0.0,1.93889,0.00066,402.856,0.000,0.1219,0.0016,139.993,45.000,31746.76409,1.94115,403.450,31.748,45.060,45.000,0.00,0.11,-272.58,-272.64,-23,576,-3,22.1,3.7,-22.8,21.8,3.8,-22.6,5.73,2.67,-10.9,26.6
2013-12-09 00:45:00,0.0,1.93882,0.00023,402.865,0.014,0.1222,0.0012,140.006,45.000,31752.18348,1.94118,403.457,31.750,45.060,45.000,0.00,0.11,-272.58,-272.63,-23,576,-3,22.0,3.7,-22.9,21.9,3.8,-22.6,5.73,2.56,-10.9,26.6
2013-12-09 00:46:00,0.0,1.93884,0.00045,402.857,0.000,0.1211,0.0010,140.000,45.000,31749.85062,1.94111,403.446,31.750,45.060,45.000,0.00,0.11,-272.57,-272.64,-23,576,-3,22.0,3.7,-22.9,21.9,3.8,-22.6,5.73,2.53,-10.9,26.6
2013-12-09 00:47:00,0.0,1.93916,0.00047,402.857,0.000,0.1216,0.0003,139.991,45.000,31748.18611,1.94131,403.448,31.750,45.060,45.000,0.00,0.11,-272.58,-272.64,-23,576,-3,22.0,3.7,-22.9,21.9,3.8,-22.6,5.73,2.68,-10.9,26.5
2013-12-09 00:48:00,0.0,1.93994,0.00037,402.857,0.000,0.1224,0.0008,139.999,45.000,31750.00774,1.94216,403.452,31.750,45.060,45.000,0.00,0.11,-272.58,-272.64,-23,576,-3,22.1,3.7,-22.9,21.8,3.8,-22.6,5.73,2.51,-10.9,26.6
2013-12-09 00:49:00,0.0,1.94047,0.00016,402.857,0.000,0.1219,0.0011,140.006,45.000,31750.72504,1.94277,403.449,31.750,45.060,45.000,0.00,0.11,-272.57,-272.64,-23,576,-3,22.1,3.7,-22.9,21.9,3.8,-22.6,5.73,2.58,-10.9,26.5
2013-12-09 00:50:00,0.0,1.94058,0.00029,402.857,0.000,0.1223,0.0022,140.008,45.000,31753.10190,1.94288,403.453,31.750,45.060,45.000,0.00,0.11,-272.58,-272.64,-23,576,-3,22.0,3.7,-22.9,21.9,3.8,-22.6,5.73,2.66,-10.9,26.5
2013-12-09 00:51:00,0.0,1.94016,0.00043,402.857,0.000,0.1214,0.0014,139.993,45.000,31751.10332,1.94265,403.447,31.750,45.060,45.000,0.00,0.11,-272.58,-272.64,-23,576,-3,22.0,3.7,-22.9,21.9,3.8,-22.6,5.73,2.48,-10.9,26.6
2013-12-09 00:52:00,0.0,1.94012,0.00017,403.158,0.000,0.1226,0.0019,139.998,45.000,31753.22537,1.94241,403.723,31.750,45.060,45.000,0.00,0.11,-272.57,-272.64,-23,576,-3,22.0,3.7,-22.9,21.9,3.8,-22.6,5.73,2.63,-10.9,26.6
2013-12-09 00:53:00,0.0,1.94044,0.00030,403.158,0.000,0.1224,0.0022,140.005,45.000,31753.57967,1.94265,403.752,31.750,45.060,45.000,0.00,0.11,-272.57,-272.64,-23,576,-3,22.1,3.7,-22.9,21.9,3.8,-22.6,5.73,2.62,-10.9,26.6
2013-12-09 00:54:00,0.0,1.94023,0.00020,403.158,0.000,0.1220,0.0010,140.003,45.000,31753.85452,1.94260,403.750,31.750,45.060,45.000,0.00,0.11,-272.58,-272.64,-23,576,-3,22.1,3.7,-22.9,21.9,3.8,-22.6,5.73,2.49,-10.9,26.6
2013-12-09 00:55:00,0.0,1.93990,0.00039,403.275,0.129,0.1220,0.0009,139.994,45.000,31753.15212,1.94234,403.845,31.756,45.060,45.000,0.00,0.11,-272.58,-272.64,-23,577,-3,22.1,3.7,-22.9,21.9,3.8,-22.6,5.73,2.67,-10.9,26.5
2013-12-09 00:56:00,0.0,1.94032,0.00032,403.416,0.000,0.1210,0.0016,140.013,45.000,31755.90801,1.94255,404.005,31.750,45.060,45.000,0.00,0.11,-272.57,-272.64,-23,576,-3,22.1,3.7,-22.9,21.9,3.8,-22.6,5.73,2.55,-10.9,26.5
2013-12-09 00:57:00,0.0,1.94061,0.00041,403.416,0.000,0.1209,0.0010,139.999,45.000,31750.53833,1.94279,404.004,31.758,45.060,45.000,0.00,0.11,-272.57,-272.64,-23,576,-3,22.1,3.6,-23.0,21.9,3.8,-22.6,5.73,2.53,-10.9,26.5
2013-12-09 00:58:00,0.0,1.94050,0.00031,403.416,0.000,0.1218,0.0012,139.991,45.000,31748.28951,1.94284,404.005,31.755,45.060,45.000,0.00,0.11,-272.58,-272.64,-23,576,-3,22.1,3.6,-23.0,21.8,3.8,-22.6,5.73,2.68,-10.9,26.5
2013-12-09 00:59:00,0.0,1.94051,0.00045,403.416,0.000,0.1214,0.0024,140.001,45.000,31750.15720,1.94292,404.009,31.758,45.060,45.000,0.00,0.11,-272.57,-272.63,-23,576,-3,22.0,3.6,-23.0,21.8,3.8,-22.6,5.73,2.52,-10.9,26.5
2013-12-09 01:00:00,0.0,1.94050,0.00061,403.247,0.098,0.1220,0.0008,140.004,45.000,31751.09177,1.94275,403.855,31.754,45.060,45.000,0.00,0.11,-272.57,-272.64,-23,576,-3,22.0,3.6,-23.0,21.9,3.8,-22.6,5.73,2.56,-10.9,26.5
2013-12-09 01:01:00,0.0,1.94026,0.00032,403.206,0.000,0.1214,0.0012,140.006,45.000,31751.89401,1.94272,403.798,31.760,45.060,45.000,0.00,0.11,-272.58,-272.64,-23,576,-3,22.1,3.6,-22.9,21.8,3.8,-22.6,5.73,2.67,-10.9,26.6
2013-12-09 01:02:00,0.0,1.94071,0.00023,403.206,0.000,0.1210,0.0005,139.991,45.000,31749.42599,1.94288,403.793,31.760,45.060,45.000,0.00,0.11,-272.58,-272.64,-23,576,-3,22.0,3.6,-23.0,21.8,3.8,-22.6,5.73,2.49,-10.9,26.5
2013-12-09 01:03:00,0.0,1.94091,0.00031,403.208,0.001,0.1229,0.0019,139.999,45.000,31752.24205,1.94328,403.803,31.751,45.060,45.000,0.00,0.11,-272.57,-272.64,-23,576,-3,22.0,3.6,-22.9,21.9,3.8,-22.6,5.73,2.61,-10.9,26.6
2013-12-09 01:04:00,0.0,1.94048,0.00027,403.208,0.000,0.1215,0.0012,140.001,45.000,31752.67836,1.94291,403.800,31.752,45.060,45.000,0.00,0.11,-272.58,-272.64,-23,576,-3,22.1,3.6,-22.9,21.9,3.8,-22.6,5.73,2.63,-10.9,26.6
2013-12-09 01:05:00,0.0,1.94052,0.00011,403.208,0.000,0.1205,0.0026,140.005,45.000,31754.16808,1.94279,403.794,31.750,45.060,45.000,0.00,0.11,-272.57,-272.64,-23,576,-3,22.1,3.6,-22.9,21.9,3.8,-22.7,5.73,2.48,-10.9,26.6
2013-12-09 01:06:00,0.0,1.94027,0.00020,403.204,0.003,0.1213,0.0017,140.005,45.000,31755.16329,1.94262,403.791,31.750,45.060,45.000,0.00,0.11,-272.57,-272.64,-23,576,-3,22.1,3.6,-23.0,21.9,3.8,-22.6,5.73,2.66,-10.9,26.6
2013-12-09 01:07:00,0.0,1.94041,0.00047,403.202,0.000,0.1204,0.0021,139.999,45.000,31751.76902,1.94275,403.787,31.758,45.060,45.000,0.00,0.11,-272.58,-272.64,-23,576,-3,22.1,3.6,-22.9,21.9,3.8,-22.7,5.73,2.57,-10.9,26.6
2013-12-09 01:08:00,0.0,1.94055,0.00050,403.202,0.000,0.1200,0.0011,139.996,45.000,31750.13785,1.94284,403.786,31.755,45.060,45.000,0.00,0.11,-272.58,-272.64,-23,576,-3,22.1,3.6,-22.9,21.9,3.8,-22.6,5.73,2.51,-10.9,26.6
2013-12-09 01:09:00,0.0,1.94037,0.00025,403.202,0.000,0.1206,0.0006,140.000,45.000,31752.35296,1.94263,403.788,31.750,45.060,45.000,0.00,0.11,-272.57,-272.64,-23,576,-3,22.1,3.6,-23.0,21.9,3.8,-22.6,5.73,2.68,-10.9,26.6
2013-12-09 01:10:00,0.0,1.94016,0.00019,403.202,0.000,0.1211,0.0008,140.006,45.000,31755.05389,1.94255,403.789,31.750,45.060,45.000,0.00,0.11,-272.58,-272.64,-23,576,-3,22.1,3.6,-22.9,21.9,3.8,-22.7,5.73,2.52,-10.9,26.6
2013-12-09 01:11:00,0.0,1.94025,0.00047,403.202,0.000,0.1201,0.0015,139.998,45.000,31751.67835,1.94241,403.786,31.750,45.060,45.000,0.00,0.11,-272.58,-272.64,-22,576,-3,22.1,3.6,-23.0,21.9,3.8,-22.6,5.73,2.56,-10.9,26.6
2013-12-09 01:12:00,0.0,1.94062,0.00040,403.202,0.000,0.1194,0.0018,140.000,45.000,31752.48325,1.94293,403.781,31.748,45.060,45.000,0.00,0.11,-272.58,-272.63,-23,576,-3,22.1,3.6,-22.9,21.9,3.8,-22.6,5.73,2.67,-10.9,26.6
2013-12-09 01:13:00,0.0,1.94000,0.00024,403.202,0.000,0.1196,0.0012,140.004,45.000,31754.87470,1.94246,403.784,31.746,45.060,45.000,0.00,0.11,-272.57,-272.63,-23,576,-3,22.1,3.6,-23.0,21.9,3.8,-22.6,5.73,2.49,-10.9,26.6
2013-12-09 01:14:00,0.0,1.94044,0.00040,403.202,0.000,0.1192,0.0007,139.995,45.000,31752.79033,1.94263,403.780,31.750,45.060,45.000,0.00,0.11,-272.58,-272.64,-23,576,-3,22.1,3.6,-23.0,21.9,3.8,-22.6,5.73,2.62,-10.9,26.6
2013-12-09 01:15:00,0.0,1.94012,0.00026,403.202,0.000,0.1185,0.0007,139.993,45.000,31750.46750,1.94248,403.777,31.743,45.060,45.000,0.00,0.11,-272.57,-272.64,-23,576,-3,22.1,3.6,-23.0,21.9,3.8,-22.6,5.73,2.63,-10.9,26.5
2013-12-09 01:16:00,0.0,1.94035,0.00034,403.202,0.000,0.1194,0.0020,140.008,45.000,31755.40390,1.94256,403.781,31.748,45.060,45.000,0.00,0.11,-272.57,-272.64,-23,576,-3,22.0,3.6,-23.0,21.9,3.8,-22.7,5.73,2.49,-10.9,26.5
2013-12-09 01:17:00,0.0,1.94057,0.00028,403.202,0.000,0.1177,0.0024,140.005,45.000,31754.50808,1.94274,403.774,31.747,45.060,45.000,0.00,0.11,-272.58,-272.64,-23,576,-3,22.1,3.6,-23.0,21.9,3.8,-22.7,5.73,2.64,-10.9,26.5
2013-12-09 01:18:00,0.0,1.94075,0.00039,403.202,0.000,0.1205,0.0011,140.001,45.000,31751.57546,1.94312,403.785,31.742,45.060,45.000,0.00,0.11,-272.58,-272.64,-23,576,-3,22.0,3.6,-23.0,21.9,3.8,-22.7,5.73,2.61,-10.9,26.5
2013-12-09 01:19:00,0.0,1.94077,0.00043,403.202,0.000,0.1202,0.0025,140.002,45.000,31750.51557,1.94308,403.784,31.750,45.060,45.000,0.00,0.11,-272.57,-272.64,-23,576,-3,22.1,3.6,-23.0,21.9,3.8,-22.7,5.73,2.49,-10.9,26.6
2013-12-09 01:20:00,0.0,1.94055,0.00049,403.202,0.000,0.1193,0.0015,140.008,45.000,31751.46710,1.94276,403.785,31.750,45.060,45.000,0.00,0.11,-272.58,-272.64,-23,575,-3,22.1,3.6,-23.0,21.9,3.8,-22.6,5.73,2.68,-10.9,26.6
2013-12-09 01:21:00,0.0,1.94074,0.00025,403.202,0.000,0.1185,0.0022,140.001,45.000,31750.17151,1.94305,403.775,31.745,45.060,45.000,0.00,0.11,-272.58,-272.64,-23,576,-3,22.1,3.6,-23.1,21.9,3.8,-22.7,5.73,2.54,-10.9,26.6
2013-12-09 01:22:00,0.0,1.94096,0.00017,403.202,0.000,0.1208,0.0005,140.005,45.000,31752.44457,1.94317,403.788,31.739,45.060,45.000,0.00,0.11,-272.57,-272.64,-23,576,-3,22.1,3.6,-23.1,21.9,3.8,-22.7,5.73,2.54,-10.9,26.6
2013-12-09 01:23:00,0.0,1.94113,0.00016,403.202,0.000,0.1171,0.0017,139.999,45.000,31747.92349,1.94338,403.773,31.750,45.060,45.000,0.00,0.11,-272.58,-272.64,-22,576,-3,22.1,3.6,-23.1,21.9,3.8,-22.7,5.73,2.67,-10.9,26.5
2013-12-09 01:24:00,0.0,1.94074,0.00025,403.202,0.000,0.1189,0.0013,140.003,45.000,31750.14205,1.94311,403.777,31.740,45.060,45.000,0.00,0.11,-272.58,-272.64,-23,576,-3,22.1,3.6,-23.1,21.9,3.8,-22.7,5.73,2.51,-10.9,26.5
2013-12-09 01:25:00,0.0,1.94064,0.00016,403.202,0.000,0.1187,0.0018,140.004,45.000,31750.15761,1.94292,403.778,31.741,45.060,45.000,0.00,0.11,-272.57,-272.64,-23,576,-3,22.0,3.6,-23.1,21.9,3.7,-22.8,5.73,2.57,-10.9,26.5
2013-12-09 01:26:00,0.0,1.94063,0.00017,403.202,0.000,0.1167,0.0013,140.008,45.000,31751.67893,1.94292,403.772,31.750,45.060,45.000,0.00,0.11,-272.58,-272.64,-23,576,-3,22.0,3.6,-23.2,21.9,3.7,-22.8,5.73,2.66,-10.9,26.5
2013-12-09 01:27:00,0.0,1.94036,0.00021,403.202,0.000,0.1187,0.0009,140.006,45.000,31751.46637,1.94263,403.776,31.750,45.060,45.000,0.00,0.11,-272.58,-272.64,-23,576,-3,22.0,3.6,-23.2,21.9,3.7,-22.8,5.73,2.49,-10.9,26.5
2013-12-09 01:28:00,0.0,1.94038,0.00048,403.029,0.057,0.1176,0.0015,140.004,45.000,31751.29968,1.94274,403.613,31.750,45.060,45.000,0.00,0.11,-272.58,-272.64,-23,576,-3,22.0,3.6,-23.2,21.9,3.7,-22.8,5.73,2.60,-10.9,26.5
2013-12-09 01:29:00,0.0,1.94002,0.00021,403.050,0.000,0.1169,0.0007,140.000,45.000,31751.01289,1.94221,403.616,31.750,45.060,45.000,0.00,0.11,-272.57,-272.64,-23,576,-3,22.0,3.6,-23.2,21.9,3.7,-22.9,5.73,2.65,-10.9,26.6
2013-12-09 01:30:00,0.0,1.94020,0.00030,403.050,0.000,0.1175,0.0015,140.004,45.000,31751.79056,1.94230,403.619,31.750,45.060,45.000,0.00,0.11,-272.57,-272.64,-23,576,-3,22.0,3.5,-23.3,21.9,3.7,-22.9,5.73,2.49,-10.9,26.6
2013-12-09 01:31:00,0.0,1.94026,0.00023,403.050,0.000,0.1160,0.0007,140.003,45.000,31752.94450,1.94259,403.615,31.750,45.060,45.000,0.00,0.32,-270.78,-272.38,-23,576,-3,22.0,3.5,-23.3,21.9,3.7,-22.9,5.42,2.72,-13.5,26.6
2013-12-09 01:32:00,0.0,1.94014,0.00052,403.050,0.000,0.1169,0.0014,139.994,45.000,31751.34969,1.94227,403.617,31.760,45.060,45.000,0.00,0.11,-272.58,-272.64,-23,576,-3,22.0,3.5,-23.3,21.9,3.7,-23.0,5.73,2.62,-10.9,26.6
2013-12-09 01:33:00,0.0,1.93999,0.00013,403.077,0.030,0.1160,0.0006,140.000,45.000,31754.86035,1.94236,403.635,31.750,45.060,45.000,0.00,0.11,-272.57,-272.64,-23,576,-3,22.1,3.5,-23.3,21.9,3.7,-23.0,5.73,2.49,-10.9,26.6
2013-12-09 01:34:00,0.0,1.93993,0.00041,403.110,0.000,0.1159,0.0008,140.001,45.000,31754.03890,1.94207,403.672,31.753,45.060,45.000,0.00,0.11,-272.57,-272.64,-23,576,-3,22.0,3.5,-23.4,21.9,3.7,-23.0,5.73,2.65,-10.9,26.6
2013-12-09 01:35:00,0.0,1.94021,0.00020,403.110,0.000,0.1158,0.0019,140.000,45.000,31752.29906,1.94238,403.674,31.769,45.060,45.000,0.00,0.11,-272.58,-272.64,-23,576,-3,22.1,3.5,-23.4,21.8,3.7,-23.0,5.73,2.58,-10.9,26.6
2013-12-09 01:36:00,0.0,1.94039,0.00015,403.110,0.000,0.1158,0.0011,140.002,45.000,31751.82748,1.94259,403.671,31.757,45.060,45.000,0.00,0.11,-272.57,-272.64,-23,576,-3,22.0,3.5,-23.4,21.9,3.6,-23.1,5.73,2.50,-10.9,26.5
2013-12-09 01:37:00,0.0,1.94026,0.00062,403.110,0.000,0.1138,0.0007,140.004,45.000,31752.86233,1.94261,403.664,31.753,45.060,45.000,0.00,0.11,-272.58,-272.64,-23,576,-3,22.1,3.5,-23.5,21.9,3.6,-23.1,5.73,2.68,-10.9,26.6
2013-12-09 01:38:00,0.0,1.93995,0.00016,403.110,0.000,0.1173,0.0025,139.998,45.000,31751.02091,1.94216,403.676,31.753,45.060,45.000,0.00,0.11,-272.58,-272.64,-23,576,-3,22.0,3.5,-23.5,21.9,3.6,-23.2,5.73,2.54,-10.9,26.6
2013-12-09 01:39:00,0.0,1.93993,0.00014,403.110,0.000,0.1133,0.0015,139.998,45.000,31750.47433,1.94210,403.663,31.750,45.060,45.000,0.00,0.11,-272.57,-272.64,-23,576,-3,22.1,3.5,-23.5,21.9,3.6,-23.2,5.73,2.54,-10.9,26.6
2013-12-09 01:40:00,0.0,1.93963,0.00016,403.110,0.000,0.1149,0.0022,139.997,45.000,31749.53134,1.94191,403.668,31.752,45.060,45.000,0.00,0.11,-272.58,-272.64,-22,576,-3,22.1,3.5,-23.5,21.9,3.6,-23.2,5.73,2.68,-10.9,26.6
2013-12-09 01:41:00,0.0,1.93907,0.00050,403.110,0.000,0.1146,0.0020,140.002,45.000,31753.07826,1.94137,403.664,31.750,45.060,45.000,0.00,0.11,-272.58,-272.64,-23,576,-3,22.1,3.4,-23.6,21.9,3.6,-23.2,5.73,2.50,-10.9,26.6
2013-12-09 01:42:00,0.0,1.93959,0.00034,403.110,0.000,0.1124,0.0016,139.997,45.000,31751.00970,1.94164,403.658,31.750,45.060,45.000,0.00,0.11,-272.58,-272.64,-23,576,-3,22.1,3.4,-23.6,21.9,3.6,-23.2,5.73,2.59,-10.9,26.6
2013-12-09 01:43:00,0.0,1.93963,0.00026,403.110,0.000,0.1124,0.0003,139.998,45.000,31751.66809,1.94179,403.656,31.750,45.060,45.000,0.00,0.11,-272.57,-272.64,-23,576,-3,22.1,3.4,-23.6,21.9,3.6,-23.3,5.73,2.65,-10.9,26.6
2013-12-09 01:44:00,0.0,1.93942,0.00030,403.110,0.000,0.1126,0.0009,139.996,45.000,31752.47676,1.94152,403.657,31.750,45.060,45.000,0.00,0.11,-272.58,-272.64,-23,575,-3,22.1,3.4,-23.6,21.9,3.6,-23.3,5.73,2.48,-10.9,26.6
2013-12-09 01:45:00,0.0,1.93939,0.00044,403.110,0.000,0.1116,0.0014,139.998,45.000,31752.86543,1.94157,403.652,31.744,45.060,45.000,0.00,0.11,-272.58,-272.64,-23,576,-3,22.1,3.4,-23.6,21.9,3.6,-23.3,5.73,2.68,-10.9,26.6